Powrót do katalogu

DELTA 1 DEB

AktywnyLEO
NORAD 14905·DEBRIS·🇺🇸 United States

Wystrzelony Jul 29, 1976 z Vandenberg Space Force Base

Loading…

Następne Przeloty (najbliższe 24 godziny)

TLE

ŚwieżeSource: Space-Track

Epoka: Sep 14, 2026, 03:18 UTC

1 14905U 76077ET  26257.13812976  .00000176  00000-0  23504-2 0  9995
2 14905 102.2481 308.2934 0184165 215.9383 165.4058 12.07388944929098

Śledź DELTA 1 DEB w czasie rzeczywistym z AllMySat

Download on the App Store